Forside
METAR-TAF:

METAR-TAF

Lufthavne :

Goshen Municipal Airport

Goshen, Indiana, USA

Breddekreds: 41-31-34N, længdekreds: 085-47-12W, højde: 252 m

Aktuelle vejr

Denne rapport blev lavet for 41 minutter siden, kl. 13:21 UTC
Vind 5 kt fra nordnordøst
Temperatur 3°C
Fugtighed 87%
Tryk 1017 hPa
Sigt: 16.1 km
Brudte skyer i en højde af 1200 ft
Overskyet i en højde af 3400 ft

METAR: KGSH 311321Z AUTO 03005KT 10SM BKN012 OVC034 03/01 A3002 RMK AO2 T00280006

Tid: 10:02 (14:02 UTC)


TAF: fraværende

Vejrobservationer og prognoser fra mere end 4000 lufthavne (METAR og TAF).

De gule og røde prikker repræsenterer de meteorologiske stationer.

Flyt musen over at se navnet på stationen.

Så klik over at se vejr observationer og prognoser.

At skifte det kort: Klik på de grønne knapper med et sort kors for at zoome ind; på den grønne knap med en bindestreg for at zoome ud; eller på de grønne pile for tilstødende kort.


METAR-TAF: